Location: Blue Sky Observatory
(43.1153°N, 70.9036°W)
Time: 11:34:21
(UTC-04:00)

Daily predictions for brighter satellites

Satellite Brightness Start Highest point End
(mag) Time Altitude Azimuth Time Altitude Azimuth Time Altitude Azimuth
Cosmos 407 Rocket 4.1 20:00:24 10° N 20:05:11 38° ENE 20:09:56 10° SE
Cosmos 1633 Rocket 3.8 20:05:36 10° NNW 20:09:52 57° W 20:14:09 10° S
SL-8 R/B 4.1 20:05:43 10° WSW 20:10:30 66° NNW 20:15:17 10° ENE
Cosmos 2218 Rocket 4.3 20:05:25 10° SSE 20:11:29 48° E 20:17:36 10° NNE
Resurs 1-3 3.9 20:07:51 10° SE 20:12:03 48° ENE 20:16:17 10° N
Cosmos 2341 Rocket 4.1 20:08:16 10° S 20:14:37 90° W 20:20:58 10° N
Cosmos 2366 rocket 4.3 20:09:58 10° SSE 20:15:52 46° E 20:21:52 10° NNE
BREEZE-M DEB (TANK) 2.8 20:12:33 10° WNW 20:16:48 49° NNE 20:18:56 10° E
Cosmos 1980 4.0 20:12:28 10° SSW 20:18:09 75° WNW 20:23:51 10° NNE
SL-8 Rocket 4.0 20:15:44 10° S 20:21:58 69° E 20:28:12 10° NNE
Cosmos 1455 3.5 20:20:18 10° SSW 20:24:01 46° WNW 20:27:46 10° N
SJ-11-01 4.5 20:20:05 10° SSE 20:24:38 55° ENE 20:29:13 10° N
Cosmos 2369 Rocket 4.2 20:21:34 10° N 20:24:47 15° NE 20:27:57 10° ENE
Cosmos 1371 Rocket 4.0 20:20:19 10° SSW 20:25:38 77° ESE 20:31:01 10° NNE
Envisat 3.6 20:21:05 10° S 20:26:05 60° W 20:31:08 10° NNW
Cosmos 1515 Rocket 3.7 20:21:47 10° S 20:26:14 84° W 20:30:43 10° N
Cosmos 2297 3.9 20:23:04 10° NNW 20:28:42 59° ENE 20:34:18 10° SE
USA 186 1.5 20:30:27 10° S 20:32:41 57° W 20:35:05 10° NNW
Cosmos 2219 Rocket 4.3 20:29:48 10° WSW 20:34:49 32° NW 20:39:51 10° N
ATLAS 5 CENTAUR R/B 3.9 20:30:46 10° NNW 20:35:16 23° NE 20:40:08 10° E
Cosmos 1441 Rocket 3.9 20:33:19 10° SSE 20:36:41 33° E 20:40:06 10° NNE
Cosmos 2333 Rocket 4.2 20:35:38 10° WSW 20:40:43 33° NW 20:45:50 10° N
ATLAS 2AS CENTAUR R/B 4.3 20:36:12 10° NW 20:43:07 36° WSW 20:49:33 10° S
H-2A R/B 3.2 20:40:45 14° ESE 20:43:49 25° ENE 20:47:48 10° NNE
Cosmos 2237 Rocket 3.2 20:38:43 10° SW 20:44:11 51° WNW 20:49:41 10° NNE
Cosmos 1140 Rocket 3.9 20:40:47 10° N 20:45:45 45° ENE 20:49:25 17° SE
Cosmos 2056 Rocket 3.6 20:41:04 10° SSW 20:46:30 89° WNW 20:51:55 10° NNE
Cosmos 1452 Rocket 4.0 20:42:17 10° SSE 20:47:03 36° ESE 20:51:50 10° NE
Cosmos 1869 3.5 20:45:47 10° SSW 20:49:48 74° W 20:53:50 10° N
Cosmos 864 Rocket 4.4 20:44:50 10° S 20:50:57 82° E 20:57:08 10° N
Cosmos 2278 Rocket 3.7 20:49:03 10° NW 20:54:08 35° WSW 20:59:13 10° SSW
NOAA 11 4.2 20:52:16 10° SSE 20:57:46 88° ENE 21:03:18 10° NNW
Cosmos 1825 3.7 20:57:52 10° NNW 21:01:22 36° W 21:04:50 10° SSW
Cosmos 1190 Rocket 4.3 20:56:27 10° NNW 21:01:42 68° WSW 21:06:38 11° S
Cosmos 1933 3.8 21:03:42 23° SE 21:05:39 39° E 21:09:29 10° NNE
Meteor 2-10 Rocket 3.9 21:00:22 10° SSW 21:06:09 80° WNW 21:12:01 10° N
Cosmos 921 Rocket 4.3 21:07:04 21° E 21:07:04 21° E 21:10:05 10° NE
CZ-4C R/B 2.2 21:02:12 10° S 21:07:06 48° ESE 21:12:40 10° NE
Spot 2 Rocket 3.9 21:03:15 10° S 21:08:18 64° WSW 21:13:23 10° NNW
MetOp-B 4.5 21:05:49 22° SE 21:09:01 49° ENE 21:14:09 10° N
Cosmos 1954 Rocket 3.9 21:06:51 10° NNW 21:12:04 78° ENE 21:15:18 23° SSE
Cosmos 405 Rocket 2.6 21:08:44 10° S 21:12:36 86° E 21:16:36 10° N
NOSS 3-4 (A) 4.2 21:07:26 10° NW 21:14:26 63° WSW 21:20:28 17° SSE
NOSS 3-4 (C) 4.2 21:07:32 10° NW 21:14:32 64° WSW 21:20:33 17° SSE
Cosmos 2098 Rocket 3.7 21:10:38 10° SSW 21:14:38 46° W 21:17:55 10° N
Cosmos 405 3.9 21:12:41 10° NNW 21:16:04 45° W 21:18:47 14° SSW
ARGOS 3.2 21:13:48 23° SSE 21:17:08 65° ENE 21:22:28 10° N
Cosmos 1943 Rocket 3.5 21:14:22 10° N 21:18:53 25° NE 21:21:16 19° E
Helios 1A 4.0 21:19:35 27° E 21:20:32 30° ENE 21:24:14 10° N
Cosmos 614 Rocket 3.9 21:15:45 10° NNW 21:21:00 88° WSW 21:24:05 25° SSE
Resurs 01 Rocket 3.5 21:23:47 10° SSW 21:27:35 28° W 21:31:25 10° NW
Lacrosse 5 2.5 21:25:01 10° NW 21:29:56 48° NE 21:32:11 29° E
Cosmos 1437 Rocket 3.1 21:27:35 10° N 21:31:22 45° ENE 21:31:53 43° E
ERS-1 Rocket 3.0 21:29:44 34° SE 21:31:49 61° ENE 21:36:46 10° N
SPOT 5 3.4 21:33:15 33° E 21:34:06 36° ENE 21:38:08 10° N
Cosmos 1821 Rocket 4.0 21:30:22 19° S 21:34:56 67° E 21:41:10 10° NNE
SL-16 R/B 3.3 21:32:50 10° SW 21:38:16 46° WNW 21:43:43 10° NNE
Cosmos 1707 Rocket 3.9 21:37:18 15° SSW 21:40:50 64° W 21:45:09 10° N
Cosmos 1420 Rocket 4.0 21:39:31 10° SSW 21:44:50 83° WNW 21:50:12 10° NNE
MetOp-A 4.4 21:47:19 27° S 21:50:13 66° WSW 21:55:34 10° NNW
Cosmos 2123 Rocket 4.0 21:47:41 10° N 21:53:56 62° E 21:55:59 42° SE
Cosmos 1733 Rocket 2.9 21:51:46 10° N 21:56:10 76° E 21:56:38 67° SE
CARTOSAT-1 4.5 21:58:33 34° ENE 21:58:33 34° ENE 22:02:18 10° N
Cosmos 2344 3.7 21:53:34 10° SW 22:01:10 79° NW 22:09:42 10° NE
Cosmos 1633 3.1 21:58:50 10° N 22:01:38 48° NNE 22:01:38 48° NNE
RESURS DK-1 2.5 21:59:20 10° NNW 22:03:23 58° NE 22:03:23 58° NE
Cosmos 1943 3.2 22:03:14 51° SSE 22:04:14 58° ESE 22:09:49 10° NNE
Cosmos 1603 3.7 22:00:11 10° SSW 22:05:49 80° WNW 22:11:28 10° NNE
Cosmos 1606 3.7 22:09:08 37° NE 22:09:08 37° NE 22:11:45 10° NNE
CZ-2C R/B 4.4 22:04:05 10° NE 22:06:25 17° ENE 22:06:25 17° ENE
Landsat 7 3.8 22:09:08 61° E 22:09:27 63° ENE 22:14:10 10° N
Cosmos 2369 Rocket 2.1 22:04:04 10° NNW 22:09:47 79° ENE 22:10:58 57° SE
Meteor 1-4 Rocket 3.3 22:07:42 10° N 22:10:16 46° N 22:10:16 46° N
Cosmos 389 Rocket 4.5 22:08:37 10° NNE 22:10:10 20° NNE 22:10:10 20° NNE
SPOT 1/Viking Rocket 3.5 22:14:28 62° SSE 22:15:24 89° ENE 22:20:39 10° NNW
Helios 1B rocket 2.7 22:12:11 10° NNE 22:15:41 60° NE 22:15:41 60° NE
Cosmos 1110 Rocket 4.1 22:16:45 55° E 22:16:45 55° E 22:21:39 10° NNE
GEOS 3 Rocket 4.0 22:13:43 10° NE 22:17:59 47° E 22:17:59 47° E
ATLAS 5 CENTAUR R/B 2.3 22:14:43 10° NW 22:20:42 87° NE 22:22:08 57° SE
Cosmos 2263 4.1 22:16:41 10° NNW 22:22:19 72° ENE 22:22:59 64° ESE
H-2A R/B 3.0 22:21:22 30° SW 22:23:03 40° W 22:27:41 10° NNW
Gblst 52 Del rocket 4.4 22:18:14 10° WSW 22:23:44 64° NNW 22:29:16 10° NE
CZ-2C R/B 3.7 22:24:05 37° ENE 22:24:05 37° ENE 22:28:17 10° N
Cosmos 1605 Rocket 3.9 22:24:02 53° S 22:25:41 81° E 22:32:07 10° N
Sich 1 Rocket 4.3 22:22:42 10° N 22:26:27 45° NE 22:26:27 45° NE
DMSP B5D2-2 4.2 22:22:07 10° N 22:27:23 75° WNW 22:28:50 48° SW
Terra 1.9 22:27:36 62° ENE 22:27:36 62° ENE 22:32:06 10° N
Meteor 1-11 Rocket 4.3 22:33:26 10° N 22:38:30 41° ENE 22:38:30 41° ENE
Cosmos 1447 Rocket 4.3 22:36:29 10° N 22:42:39 78° E 22:43:14 71° SE
Meteor 1-27 Rocket 4.4 22:45:04 41° ENE 22:45:04 41° ENE 22:49:41 10° NNE
Cosmos 921 Rocket 4.4 22:43:47 30° W 22:44:55 35° WNW 22:48:53 10° N
Cosmos 1782 4.0 22:47:54 40° NNW 22:47:54 40° NNW 22:50:39 10° N
Cosmos 1703 Rocket 4.5 22:50:00 43° NNE 22:50:00 43° NNE 22:52:58 10° N
Cosmos 1908 Rocket 4.3 22:50:04 10° NNW 22:53:43 52° NW 22:53:43 52° NW
CZ-4C R/B 3.9 22:51:01 10° WSW 22:55:50 32° NW 23:01:19 10° NNE
Cosmos 1461 3.7 22:52:07 10° NW 22:55:56 56° NW 22:55:56 56° NW
Cosmos 1656 Rocket 3.9 22:55:03 10° NNW 23:00:28 62° NE 23:00:28 62° NE
Cosmos 1943 Rocket 2.5 22:57:34 10° NNW 23:02:48 54° WSW 23:02:48 54° WSW
USA 267 3.2 22:57:19 10° NE 23:03:05 62° E 23:03:05 62° E
Lacrosse 5 3.3 23:08:13 10° WNW 23:11:23 29° W 23:11:23 29° W
Cosmos 2100 Rocket 4.0 23:30:49 78° W 23:30:49 78° W 23:37:13 10° N
Cosmos 1802 Rocket 4.0 23:37:53 76° N 23:37:53 76° N 23:43:39 10° N
USA 234 3.8 23:36:00 43° ENE 23:37:42 54° NNE 23:44:01 10° NW
Cosmos 2061 Rocket 4.1 23:46:00 75° WNW 23:46:00 75° WNW 23:52:13 10° N
CZ-2C R/B 3.2 23:43:15 10° N 23:47:57 55° NW 23:47:57 55° NW
SeaSat 1 4.1 23:52:36 27° NE 23:52:36 27° NE 23:56:22 10° N
Cosmos 2369 Rocket 4.4 23:50:01 10° WNW 23:52:46 15° W 23:52:46 15° W
